Location: Ocean City
(38.3360°N, 75.0850°W)
Time: 06:20:54
(UTC-05:00)

N. Korean satellite - Visible Passes

Search period start: 12 November 2019 00:00
Search period end: 22 November 2019 00:00
Orbit: 456 x 506 km, 97.2° (Epoch: 12 November)

Date Brightness Start Highest point End Pass type
(mag) Time Alt. Az. Time Alt. Az. Time Alt. Az.
12 Nov 7.1 05:44:55 10° NNE 05:48:38 67° E 05:52:18 10° S visible
12 Nov 9.4 17:52:39 10° SSW 17:55:29 22° W 17:58:24 10° NW visible
13 Nov 8.8 05:19:54 10° NE 05:23:13 30° E 05:26:29 10° SSE visible
13 Nov 7.7 17:26:34 10° S 17:30:02 48° W 17:33:34 10° NNW visible
14 Nov 10.0 04:55:34 10° ENE 04:57:42 15° E 04:59:49 10° SE visible
15 Nov 6.6 06:02:11 10° N 06:05:53 69° WNW 06:09:31 10° SSW visible
15 Nov 10.0 18:10:59 10° SW 18:12:51 14° W 18:14:45 10° WNW visible
16 Nov 7.6 05:36:53 10° NNE 05:40:31 51° E 05:44:06 10° S visible
16 Nov 8.9 17:44:11 10° SSW 17:47:19 28° W 17:50:31 10° NW visible
17 Nov 9.2 05:12:00 10° NE 05:15:03 24° E 05:18:03 10° SSE visible
17 Nov 7.1 17:18:18 10° S 17:21:52 64° W 17:25:31 10° NNW visible
18 Nov 10.2 04:48:12 10° ENE 04:49:29 11° E 04:50:46 10° ESE visible
19 Nov 6.6 05:54:02 10° N 05:57:45 89° W 06:01:23 10° SSW visible
19 Nov 9.8 18:02:09 10° SW 18:04:38 17° W 18:07:08 10° NW visible
20 Nov 8.1 05:28:50 10° NNE 05:32:20 39° E 05:35:46 10° S visible
20 Nov 8.4 17:35:45 10° SSW 17:39:06 36° W 17:42:33 10° NNW visible
21 Nov 9.6 05:04:09 10° NE 05:06:49 19° E 05:09:27 10° SE visible
21 Nov 6.7 17:10:02 10° S 17:13:41 84° W 17:17:24 10° NNW visible
